This is the latest recevied weather packets stored in our database for station/object DG8SF-13. If no packets are shown the sender has not sent any weather packets the latest 10 day(s).
| Time | Temp. | Humidity | Pressure | Rain* | Wind** | Luminosity | Snow |
|---|---|---|---|---|---|---|---|
| 1787836695 | 31.67° C | 44% | 1011.9 hPa | 0 mm | - | - | - |
| 1787836385 | 32.22° C | 44% | 1012 hPa | 0 mm | - | - | - |
| 1787836070 | 32.22° C | 44% | 1012 hPa | 0 mm | - | - | - |
| 1787835763 | 32.22° C | 45% | 1012 hPa | 0 mm | - | - | - |
| 1787835448 | 32.22° C | 45% | 1012.1 hPa | 0 mm | - | - | - |
| 1787835137 | 31.67° C | 47% | 1012.1 hPa | 0 mm | - | - | - |
| 1787834823 | 31.67° C | 47% | 1012.1 hPa | 0 mm | - | - | - |
| 1787834513 | 31.11° C | 47% | 1012.2 hPa | 0 mm | - | - | - |
| 1787834199 | 31.67° C | 48% | 1012.2 hPa | 0 mm | - | - | - |
| 1787833889 | 31.67° C | 46% | 1012.5 hPa | 0 mm | - | - | - |
| 1787833575 | 31.11° C | 48% | 1012.4 hPa | 0 mm | - | - | - |
| 1787833266 | 31.11° C | 48% | 1012.5 hPa | 0 mm | - | - | - |
| 1787832927 | 31.11° C | 47% | 1012.6 hPa | 0 mm | - | - | - |
| 1787832604 | 30.56° C | 46% | 1012.6 hPa | 0 mm | - | - | - |
| 1787832291 | 30.56° C | 48% | 1012.7 hPa | 0 mm | - | - | - |
| 1787831982 | 30.56° C | 48% | 1012.8 hPa | 0 mm | - | - | - |
| 1787831669 | 31.11° C | 47% | 1012.8 hPa | 0 mm | - | - | - |
| 1787831357 | 30.56° C | 47% | 1012.9 hPa | 0 mm | - | - | - |
| 1787831043 | 30.56° C | 46% | 1012.8 hPa | 0 mm | - | - | - |
| 1787830722 | 30° C | 49% | 1012.8 hPa | 0 mm | - | - | - |
| 1787830407 | 30.56° C | 47% | 1012.9 hPa | 0 mm | - | - | - |
| 1787830097 | 30.56° C | 48% | 1013 hPa | 0 mm | - | - | - |
| 1787829783 | 29.44° C | 49% | 1013 hPa | 0 mm | - | - | - |
| 1787829472 | 29.44° C | 49% | 1013.1 hPa | 0 mm | - | - | - |
| 1787829159 | 29.44° C | 50% | 1013.1 hPa | 0 mm | - | - | - |
* Rain latest hour (hover to see other rain measurements)
** Current wind speed in m/s (hover to see current wind gust speed)